Tracking 19219 objects as of 20-Jul-2018
HD Live streaming from Space Station
objects crossing your sky now

FENGYUN 1C DEB

Track FENGYUN 1C DEB now!
10-day predictions


NORAD ID: 30261
Int'l Code: 1999-025XW
Perigee: 484.3 km
Apogee: 756.4 km
Inclination: 98.8 °
Period: 97.0 minutes
Semi major axis: 6991 km
RCS: 0.028 m2 (small)
Launch date: May 10, 1999
Source: People's Republic of China (PRC)
Launch site: Taiyaun Space Center, China (TSC)

Note: This is SATELLITE DEBRIS
aabbcc
Your satellite tracking list
Your tracking list is empty




NASA's NSSDC Master Catalog

Two Line Element Set (TLE):
1 30261U 99025XW  18200.60029105 +.00000658 +00000-0 +61549-4 0  9999
2 30261 098.7938 229.6459 0194601 109.4059 252.8298 14.85128427618816
Source of the keplerian elements: AFSPC